User: anonymous   Login
Location: Mentone
(34.5413°N, 85.5351°W)
Time: 01:46:04
(UTC-05:00)
Language:

SL-8 R/B - Orbit

View from above orbital plane
View from above orbital plane
View from above satellite
View from above satellite

Ground track
Ground track

The orbit data is extracted from the following two-line orbital elements,

1 33066U 08031G   15242.70707317 -.00000005  00000-0  31955-4 0  9999
2 33066 048.4442 300.5526 0008203 224.9937 289.6716 14.69277389386211
Epoch (UTC): 30 August 2015 16:58:11
Eccentricity: 0.0008203
inclination: 48.4442°
perigee height: 657 km
apogee height: 669 km
right ascension of ascending node: 300.5526°
argument of perigee: 224.9937°
revolutions per day: 14.69277389
mean anomaly at epoch: 289.6716°
orbit number at epoch: 38621

The dashed part of the orbit path shows where the satellite is in the earth's shadow,  

DLR